Atlantic - Newfoundland: Past 24 Hour Conditions

 

Port aux Basques

04:30 AM NDT 01 August 2014
This table is a summary of hourly weather conditions for the past 24 hours.
Date / Time
(NDT)
Wind(knots) Conditions Visibility(km) Pressure(kPa) Air tempC) Relative humidity(%) Dew pointC)
01 August 2014
4:30 ENE 4 Mainly Clear 13 102.4 18 98 18
3:30 calm Partly Cloudy 6 102.4 18 99 18
2:30 SSE 3 Mostly Cloudy 8 102.4 18 99 18
1:30 calm Cloudy 3 102.4 19 99 18
0:30 S 4 Cloudy 4 102.4 19 100 19
31 July 2014
23:30 S 4 Cloudy 5 102.4 18 99 18
22:30 SSE 5 Cloudy 6 102.4 19 99 18
21:30 SSE 8 Mainly Clear 8 102.4 19 99 19
20:30 SSE 7 Partly Cloudy 4 102.3 18 99 18
19:30 SE 8 Cloudy 6 102.3 18 99 18
18:30 SSE 11 Mostly Cloudy 6 102.3 18 100 18
17:30 ESE 9 Cloudy 0.3 102.3 19 100 19
16:30 ESE 8 Cloudy 3 102.3 20 100 20
15:30 E 9 Cloudy 0.3 102.3 19 99 19
14:30 E 11 Light Rain 0.3 102.3 18 100 18
13:30 E 11 Light Rain 0.3 102.4 18 100 18
12:30 E 9 Light Rain 0.3 102.3 19 100 19
11:30 E 10 Cloudy 0.3 102.3 18 100 18
10:30 E 11 Cloudy 0.6 102.3 18 99 18
9:30 E 11 Cloudy 10 102.3 18 100 18
8:30 E 8 Light Rain 0.2 102.4 18 99 17
7:30 E 11 Cloudy 0.2 102.3 17 100 17
6:30 E 6 Cloudy 0.2 102.2 18 99 18
5:30 E 7 Mostly Cloudy 0.2 102.2 17 99 17
4:30 E 11 Light Rain 0.2 102.2 18 100 18
 
Map of Atlantic - Newfoundland marine weather areas Southwestern Grand Banks - 44138 Banquereau - 44139 Tail of the Bank - 44140 Nickerson Bank - 44251 Northeast Burgeo Bank - 44255 Blanc-Sablon Airport Cap Whittle Chevery Natashquan Airport Heath Point Miscou Island Grand Étang Ingonish Beach North Mountain St.Paul Island J.A. Douglas McCurdy Sydney Airport Charlottetown Airport East Point North Cape Argentia Bonavista Burgeo Cape Race Corner Brook Daniel's Harbour Englee Ferolle Point La Scie Port aux Basques Rocky Harbour Sagona Island St. Anthony Airport St. John's Int'l Airport St. Lawrence Stephenville Airport Twillingate Winterland Wreckhouse Cartwright Airport Mary's Harbour Grates Cove Pool's Island Marticot Island Long Pond Îles de la Madeleine Airport
Legend: buoyBuoy land stationLand Station